Regional Weather Roundup
Issued by NWS Newport/Morehead, NC

Current Version | Previous Version | Graphics & Text | Print | Product List | Glossary Off
Versions: 1 2 3 4 5 6 7 8 9 10 11 12 13 14 15 16 17 18 19 20 21 22 23 24 25 26 27 28 29 30 31 32 33 34 35 36 37 38 39 40 41 42 43 44 45 46 47 48 49 50

000
ASUS42 KMHX 261710
RWRMHX
WEATHER ROUNDUP FOR EASTERN NORTH CAROLINA
NATIONAL WEATHER SERVICE NEWPORT/MOREHEAD CITY NC
1200 PM EST MON JAN 26 2015

NOTE: "FAIR" INDICATES FEW OR NO CLOUDS BELOW 12,000 FEET
WITH NO SIGNIFICANT WEATHER AND/OR OBSTRUCTIONS TO VISIBILITY

NCZ015>017-031-032-045>047-102-103-261800-
NORTH COAST

CITY           SKY/WX    TMP DP  RH WIND       PRES   REMARKS
EDENTON        CLOUDY    49  43  79 NE3       29.59F
ELIZABETH CITY CLOUDY    50  44  80 N7        29.60F
KITTY HAWK     CLOUDY    49  47  92 NE3       29.58F
MANTEO         CLOUDY    52  46  82 NE6       29.59F

$$

NCZ045>047-081-094-103-104-261800-
CENTRAL COAST

CITY           SKY/WX    TMP DP  RH WIND       PRES   REMARKS
FRISCO         CLOUDY    52  43  71 CALM      29.60F
SWANQUARTER    NOT AVBL

$$

NCZ095-097-098-100-101-261800-
SOUTHERN COAST

CITY           SKY/WX    TMP DP  RH WIND       PRES   REMARKS
BEAUFORT       CLOUDY    50  46  86 CALM      29.60F
CEDAR ISLAND   NOT AVBL
JACKSONVILLE   CLOUDY    50  43  77 NW6       29.62F
PINEY ISLAND     N/A    N/A N/A N/A MISG      29.61F
WILMINGTON     PTSUNNY   53  43  68 W9        29.62F


$$

NCZ011>013-027>030-043-044-078>080-089-090>093-098-261800-
COASTAL PLAIN

CITY           SKY/WX    TMP DP  RH WIND       PRES   REMARKS
AHOSKIE        PTSUNNY   47  40  75 NW3       29.63F
CLINTON        DRIZZLE   48  42  81 NW6       29.64F
ELIZABETHTOWN  MOSUNNY   52  41  65 NW7       29.63F
GOLDSBORO      PTSUNNY   49  48  96 NE2       29.61F
GREENVILLE     CLOUDY    46  41  81 N6        29.65F
HAVELOCK       CLOUDY    50  44  80 N5        29.61F
KENANSVILLE    CLOUDY    50  40  69 N3        29.63F
KINSTON        PTSUNNY   48  41  76 N6        29.62F
NEW BERN       CLOUDY    50  42  74 CALM      29.63F
RICHLANDS      CLOUDY    48  39  71 NW3       29.62S
ROCKY MOUNT    CLOUDY    46  42  86 N6        29.62F
WASHINGTON     CLOUDY    47  42  82 N3        29.61F
WHITEVILLE     SUNNY     56  42  60 CALM      29.61F

$$

AMZ130-135-150-152-154-156-158-170-250-252-270-ANZ085-086-088-633-658-670-261800-
MARINE OBSERVATIONS

STATION/POSITION TIME  TEMP    WIND        PRES    WAVE   SWELL
                       AIR SEA DIR/SP/G            HT/PER HT/PER
                 (UTC) (F)     (DEG/KT/KT) (MB)    (FT/S) (FT/S)
CHESAPEAKE LIGHT 1600   45      20/  9/ 10 1004.5
64 E VA BEACH    1700   54 52   50/ 14/ 17 1001.3    3/ 8   2/ 8
DUCK             1700   45 44   10/  6/  7 1001.4
2 E DUCK         1700      44                N/A     2/11   2/11
10 NE DUCK       1700      45                N/A     2/ 9   2/12
OREGON INLET     1700   50 47  310/  2/  3 1002.2
13E OREGON INLT  1700      47                N/A     3/10
HATTERAS CG      1700   52 53  130/  3/  3 1002.5
DIAMOND BUOY     1700   58 70  320/  6/  8 1002.4    3/ 8   3/ 8
17 S OCRACOKE    NOT AVBL
CAPE LOOKOUT     1600   50      30/  3/  4 1002.9
BEAUFORT LAB     1700   49 50   30/  2/  2 1001.2
27 SE WRIGHTSVLE NOT AVBL
5 SE WRIGHTSVLE  1600   51 51  290/ 12/ 14 1003.6
225 S CAPE HAT   1641   70 72  250/ 27/ 35 1002.1    8/ 6   2/10
41 SE CHARLESTON 1700   55 69  270/ 16/ 21 1004.0    6/ 7   2/15

$$


USA.gov is the U.S. government's official web portal to all federal, state and local government web resources and services.